"read_dt","SO2 (ppb)","flags","PMT voltage (V)","lamp voltage (V)","lamp intensity (Hz)","internal temp (C)","react chamber temp (C)","sample flow (l/min)","pres (mmHg)","SO2 bkg (ppb)","SO2 coefficient"
2016-06-07 00:00:00,2077E-3,5C000400,-0724,0829,12300,029.0,045.5,0.253,764.3,01.16,0.508
2016-06-07 00:01:00,2056E-3,5C000400,-0724,0830,12378,029.1,045.5,0.253,764.4,01.16,0.508
2016-06-07 00:02:00,2088E-3,5C000400,-0724,0829,12064,029.0,045.5,0.253,764.3,01.16,0.508
2016-06-07 00:03:00,2163E-3,5C000400,-0724,0830,12163,029.1,045.5,0.253,764.3,01.16,0.508
2016-06-07 00:04:00,2079E-3,5C000400,-0724,0829,12080,029.0,045.5,0.254,764.3,01.16,0.508
2016-06-07 00:05:00,2024E-3,5C000400,-0724,0829,12163,029.0,045.5,0.253,764.3,01.16,0.508
2016-06-07 00:06:00,2072E-3,5C000400,-0724,0829,12320,029.1,045.5,0.253,764.3,01.16,0.508
2016-06-07 00:07:00,2071E-3,5C000400,-0724,0830,12155,029.1,045.5,0.253,764.3,01.16,0.508
2016-06-07 00:08:00,2087E-3,5C000400,-0724,0830,12191,029.1,045.5,0.253,764.3,01.16,0.508
2016-06-07 00:09:00,2175E-3,5C000400,-0724,0829,12189,029.1,045.5,0.253,764.3,01.16,0.508
2016-06-07 00:10:00,2127E-3,5C000400,-0724,0830,12198,029.1,045.5,0.253,764.3,01.16,0.508
2016-06-07 00:11:00,2202E-3,5C000400,-0724,0830,12091,029.1,045.5,0.253,764.3,01.16,0.508
2016-06-07 00:12:00,2127E-3,5C000400,-0724,0830,12096,029.1,045.5,0.253,764.2,01.16,0.508
2016-06-07 00:13:00,2065E-3,5C000400,-0724,0829,12243,029.1,045.5,0.253,764.3,01.16,0.508
2016-06-07 00:14:00,2107E-3,5C000400,-0724,0830,12179,029.1,045.5,0.253,764.3,01.16,0.508
2016-06-07 00:15:00,2148E-3,5C000400,-0724,0829,12062,029.1,045.5,0.253,764.3,01.16,0.508
2016-06-07 00:16:00,2073E-3,5C000400,-0724,0829,12191,029.1,045.5,0.253,764.3,01.16,0.508
2016-06-07 00:17:00,2246E-3,5C000400,-0724,0830,12142,029.1,045.5,0.253,764.3,01.16,0.508
2016-06-07 00:18:00,2153E-3,5C000400,-0724,0830,12315,029.1,045.5,0.253,764.2,01.16,0.508
2016-06-07 00:19:00,2203E-3,5C000400,-0724,0829,12317,029.0,045.5,0.253,764.3,01.16,0.508
2016-06-07 00:20:00,2060E-3,5C000400,-0724,0830,12233,029.0,045.5,0.253,764.3,01.16,0.508
2016-06-07 00:21:00,2111E-3,5C000400,-0724,0829,12252,029.1,045.5,0.253,764.3,01.16,0.508
2016-06-07 00:22:00,2127E-3,5C000400,-0724,0829,12203,029.0,045.5,0.253,764.3,01.16,0.508
2016-06-07 00:23:00,2089E-3,5C000400,-0724,0829,12040,029.1,045.5,0.253,764.3,01.16,0.508
2016-06-07 00:24:00,2115E-3,5C000400,-0724,0829,12069,029.1,045.5,0.253,764.2,01.16,0.508
2016-06-07 00:25:00,2151E-3,5C000400,-0724,0829,12101,029.0,045.5,0.253,764.2,01.16,0.508
2016-06-07 00:26:00,2077E-3,5C000400,-0724,0829,12174,029.0,045.5,0.254,764.2,01.16,0.508
2016-06-07 00:27:00,2038E-3,5C000400,-0724,0829,12330,029.0,045.5,0.253,764.2,01.16,0.508
2016-06-07 00:28:00,2112E-3,5C000400,-0724,0830,12247,029.0,045.5,0.253,764.3,01.16,0.508
2016-06-07 00:29:00,2056E-3,5C000400,-0724,0830,12282,029.1,045.5,0.253,764.3,01.16,0.508
2016-06-07 00:30:00,2002E-3,5C000400,-0724,0829,12219,029.0,045.5,0.253,764.3,01.16,0.508
2016-06-07 00:31:00,2052E-3,5C000400,-0724,0830,12125,029.0,045.5,0.253,764.2,01.16,0.508
2016-06-07 00:32:00,2157E-3,5C000400,-0724,0829,12224,029.0,045.5,0.253,764.2,01.16,0.508
2016-06-07 00:33:00,2111E-3,5C000400,-0724,0829,12134,029.0,045.5,0.253,764.2,01.16,0.508
2016-06-07 00:34:00,2035E-3,5C000400,-0724,0830,12238,029.0,045.5,0.254,764.2,01.16,0.508
2016-06-07 00:35:00,2084E-3,5C000400,-0724,0829,12170,029.0,045.5,0.253,764.2,01.16,0.508
2016-06-07 00:36:00,2156E-3,5C000400,-0724,0829,12123,029.0,045.5,0.254,764.2,01.16,0.508
2016-06-07 00:37:00,2145E-3,5C000400,-0724,0830,12261,029.0,045.5,0.254,764.2,01.16,0.508
2016-06-07 00:38:00,2294E-3,5C000400,-0724,0830,12244,029.0,045.5,0.253,764.2,01.16,0.508
2016-06-07 00:39:00,2259E-3,5C000400,-0724,0829,12133,029.0,045.5,0.253,764.1,01.16,0.508
2016-06-07 00:40:00,2031E-3,5C000400,-0724,0829,12200,028.9,045.5,0.253,764.2,01.16,0.508
2016-06-07 00:41:00,1916E-3,5C000400,-0724,0829,12195,029.0,045.5,0.253,764.2,01.16,0.508
2016-06-07 00:42:00,2087E-3,5C000400,-0724,0830,12166,029.0,045.5,0.254,764.2,01.16,0.508
2016-06-07 00:43:00,2174E-3,5C000400,-0724,0829,12297,029.0,045.5,0.253,764.2,01.16,0.508
2016-06-07 00:44:00,2128E-3,5C000400,-0724,0830,12288,029.0,045.5,0.253,764.2,01.16,0.508
2016-06-07 00:45:00,2028E-3,5C000400,-0724,0829,12065,029.0,045.5,0.253,764.2,01.16,0.508
2016-06-07 00:46:00,2191E-3,5C000400,-0724,0829,12168,029.0,045.5,0.253,764.2,01.16,0.508
2016-06-07 00:47:00,2098E-3,5C000400,-0724,0829,12082,029.0,045.5,0.254,764.2,01.16,0.508
2016-06-07 00:48:00,2268E-3,5C000400,-0724,0829,12095,029.0,045.5,0.253,764.2,01.16,0.508
2016-06-07 00:49:00,2046E-3,5C000400,-0724,0830,12196,029.0,045.5,0.253,764.2,01.16,0.508
2016-06-07 00:50:00,2083E-3,5C000400,-0724,0830,12300,029.0,045.5,0.253,764.2,01.16,0.508
2016-06-07 00:51:00,2097E-3,5C000400,-0724,0829,12169,029.0,045.5,0.254,764.2,01.16,0.508
2016-06-07 00:52:00,2034E-3,5C000400,-0724,0830,12333,029.0,045.5,0.253,764.2,01.16,0.508
2016-06-07 00:53:00,2159E-3,5C000400,-0724,0829,12148,029.0,045.5,0.253,764.2,01.16,0.508
2016-06-07 00:54:00,1975E-3,5C000400,-0724,0829,12244,029.0,045.5,0.253,764.2,01.16,0.508
2016-06-07 00:55:00,2037E-3,5C000400,-0724,0830,12293,029.0,045.5,0.253,764.2,01.16,0.508
2016-06-07 00:56:00,2215E-3,5C000400,-0724,0830,12092,029.0,045.5,0.254,764.2,01.16,0.508
2016-06-07 00:57:00,2092E-3,5C000400,-0724,0828,12167,029.0,045.5,0.253,764.2,01.16,0.508
2016-06-07 00:58:00,2100E-3,5C000400,-0724,0830,12124,029.0,045.5,0.253,764.2,01.16,0.508
2016-06-07 00:59:00,2095E-3,5C000400,-0724,0829,12108,029.0,045.5,0.253,764.2,01.16,0.508
2016-06-07 01:00:00,2046E-3,5C000400,-0724,0829,12129,029.0,045.5,0.254,764.2,01.16,0.508
2016-06-07 01:01:00,2117E-3,5C000400,-0724,0829,12140,029.0,045.5,0.253,764.2,01.16,0.508
2016-06-07 01:02:00,2082E-3,5C000400,-0724,0830,12261,029.0,045.5,0.253,764.2,01.16,0.508
2016-06-07 01:03:00,2073E-3,5C000400,-0724,0829,12175,029.0,045.5,0.253,764.2,01.16,0.508
2016-06-07 01:04:00,2019E-3,5C000400,-0724,0830,12367,029.0,045.5,0.253,764.2,01.16,0.508
2016-06-07 01:05:00,2207E-3,5C000400,-0724,0829,12195,029.0,045.5,0.254,764.2,01.16,0.508
2016-06-07 01:06:00,2166E-3,5C000400,-0724,0830,12251,029.0,045.5,0.253,764.2,01.16,0.508
2016-06-07 01:07:00,2061E-3,5C000400,-0724,0830,12080,029.1,045.5,0.253,764.1,01.16,0.508
2016-06-07 01:08:00,2164E-3,5C000400,-0724,0830,12173,029.1,045.5,0.253,764.2,01.16,0.508
2016-06-07 01:09:00,2083E-3,5C000400,-0724,0829,12204,029.0,045.5,0.254,764.1,01.16,0.508
2016-06-07 01:10:00,2210E-3,5C000400,-0724,0830,12181,029.1,045.5,0.253,764.1,01.16,0.508
2016-06-07 01:11:00,2191E-3,5C000400,-0724,0830,12234,029.0,045.5,0.253,764.2,01.16,0.508
2016-06-07 01:12:00,2094E-3,5C000400,-0724,0829,12064,029.0,045.5,0.253,764.1,01.16,0.508
2016-06-07 01:13:00,2204E-3,5C000400,-0724,0830,12193,029.1,045.5,0.253,764.1,01.16,0.508
2016-06-07 01:14:00,2097E-3,5C000400,-0724,0830,12255,029.1,045.5,0.254,764.1,01.16,0.508
2016-06-07 01:15:00,2040E-3,5C000400,-0724,0830,12329,029.1,045.5,0.253,764.1,01.16,0.508
2016-06-07 01:16:00,2146E-3,5C000400,-0724,0830,12377,029.1,045.5,0.253,764.2,01.16,0.508
2016-06-07 01:17:00,2293E-3,5C000400,-0724,0829,12294,029.1,045.5,0.253,764.1,01.16,0.508
2016-06-07 01:18:00,2075E-3,5C000400,-0724,0830,12117,029.1,045.5,0.253,764.2,01.16,0.508
2016-06-07 01:19:00,2067E-3,5C000400,-0724,0830,12107,029.1,045.5,0.253,764.1,01.16,0.508
2016-06-07 01:20:00,2286E-3,5C000400,-0724,0829,12210,029.1,045.5,0.253,764.1,01.16,0.508
2016-06-07 01:21:00,2093E-3,5C000400,-0724,0829,12155,029.1,045.5,0.253,764.1,01.16,0.508
2016-06-07 01:22:00,2174E-3,5C000400,-0724,0830,12207,029.1,045.5,0.253,764.1,01.16,0.508
2016-06-07 01:23:00,2115E-3,5C000400,-0724,0830,12322,029.1,045.5,0.253,764.1,01.16,0.508
2016-06-07 01:24:00,2184E-3,5C000400,-0724,0829,12186,029.0,045.5,0.253,764.1,01.16,0.508
2016-06-07 01:25:00,2175E-3,5C000400,-0724,0830,12260,029.1,045.5,0.253,764.1,01.16,0.508
2016-06-07 01:26:00,2124E-3,5C000400,-0724,0830,12276,029.1,045.5,0.253,764.1,01.16,0.508
2016-06-07 01:27:00,2051E-3,5C000400,-0724,0829,12087,029.1,045.5,0.253,764.1,01.16,0.508
2016-06-07 01:28:00,2209E-3,5C000400,-0724,0830,12044,029.1,045.5,0.253,764.1,01.16,0.508
2016-06-07 01:29:00,2047E-3,5C000400,-0724,0829,12241,029.1,045.5,0.253,764.0,01.16,0.508
2016-06-07 01:30:00,1983E-3,5C000400,-0724,0829,12129,029.1,045.5,0.253,764.1,01.16,0.508
2016-06-07 01:31:00,2187E-3,5C000400,-0724,0830,12217,029.1,045.5,0.253,764.1,01.16,0.508
2016-06-07 01:32:00,2167E-3,5C000400,-0724,0830,12294,029.0,045.5,0.253,764.1,01.16,0.508
2016-06-07 01:33:00,2122E-3,5C000400,-0724,0830,12300,029.1,045.5,0.253,764.0,01.16,0.508
2016-06-07 01:34:00,2097E-3,5C000400,-0724,0830,12260,029.1,045.5,0.254,764.0,01.16,0.508
2016-06-07 01:35:00,2085E-3,5C000400,-0724,0829,12082,029.0,045.5,0.253,764.0,01.16,0.508
2016-06-07 01:36:00,2248E-3,5C000400,-0724,0829,12144,029.1,045.5,0.254,764.0,01.16,0.508
2016-06-07 01:37:00,2163E-3,5C000400,-0724,0829,12145,029.1,045.5,0.254,764.0,01.16,0.508
2016-06-07 01:38:00,2120E-3,5C000400,-0724,0829,12229,029.1,045.5,0.253,764.0,01.16,0.508
2016-06-07 01:39:00,2094E-3,5C000400,-0724,0829,12159,029.0,045.5,0.253,764.0,01.16,0.508
2016-06-07 01:40:00,2204E-3,5C000400,-0724,0830,12229,029.1,045.5,0.253,764.0,01.16,0.508
2016-06-07 01:41:00,2174E-3,5C000400,-0724,0830,12191,029.1,045.5,0.253,764.0,01.16,0.508
2016-06-07 01:42:00,2205E-3,5C000400,-0724,0830,12267,029.1,045.5,0.253,764.0,01.16,0.508
2016-06-07 01:43:00,2116E-3,5C000400,-0724,0829,12255,029.1,045.5,0.253,764.0,01.16,0.508
2016-06-07 01:44:00,2056E-3,5C000400,-0724,0830,12311,029.1,045.5,0.253,764.0,01.16,0.508
2016-06-07 01:45:00,2140E-3,5C000400,-0724,0829,12082,029.1,045.5,0.253,764.0,01.16,0.508
2016-06-07 01:46:00,2030E-3,5C000400,-0724,0829,12202,029.1,045.5,0.253,764.0,01.16,0.508
2016-06-07 01:47:00,2005E-3,5C000400,-0724,0830,12235,029.1,045.5,0.254,764.0,01.16,0.508
2016-06-07 01:48:00,2234E-3,5C000400,-0724,0829,12135,029.1,045.5,0.253,764.0,01.16,0.508
2016-06-07 01:49:00,2121E-3,5C000400,-0724,0830,12314,029.1,045.5,0.253,764.0,01.16,0.508
2016-06-07 01:50:00,2118E-3,5C000400,-0724,0829,12219,029.1,045.5,0.253,764.0,01.16,0.508
2016-06-07 01:51:00,2094E-3,5C000400,-0724,0829,12178,029.1,045.5,0.253,763.9,01.16,0.508
2016-06-07 01:52:00,2102E-3,5C000400,-0724,0830,12260,029.1,045.5,0.253,764.0,01.16,0.508
2016-06-07 01:53:00,2144E-3,5C000400,-0724,0829,12197,029.1,045.5,0.253,763.9,01.16,0.508
2016-06-07 01:54:00,2006E-3,5C000400,-0724,0830,12169,029.1,045.5,0.253,763.9,01.16,0.508
2016-06-07 01:55:00,2096E-3,5C000400,-0724,0830,12141,029.1,045.5,0.253,764.0,01.16,0.508
2016-06-07 01:56:00,2175E-3,5C000400,-0724,0828,12171,029.1,045.5,0.253,764.0,01.16,0.508
2016-06-07 01:57:00,1943E-3,5C000400,-0724,0828,12255,029.1,045.5,0.253,764.0,01.16,0.508
2016-06-07 01:58:00,2124E-3,5C000400,-0724,0829,12267,029.1,045.5,0.253,764.0,01.16,0.508
2016-06-07 01:59:00,2028E-3,5C000400,-0724,0828,12090,029.1,045.5,0.253,763.9,01.16,0.508
2016-06-07 02:00:00,2255E-3,5C000400,-0724,0829,12351,029.1,045.5,0.253,763.9,01.16,0.508
2016-06-07 02:01:00,2226E-3,5C000400,-0724,0828,12284,029.1,045.5,0.253,763.9,01.16,0.508
2016-06-07 02:02:00,2005E-3,5C000400,-0724,0829,12244,029.1,045.5,0.253,763.9,01.16,0.508
2016-06-07 02:03:00,2148E-3,5C000400,-0724,0828,12216,029.1,045.5,0.253,763.9,01.16,0.508
2016-06-07 02:04:00,2155E-3,5C000400,-0724,0829,12189,029.1,045.5,0.253,763.9,01.16,0.508
2016-06-07 02:05:00,2279E-3,5C000400,-0724,0830,12234,029.1,045.5,0.253,763.9,01.16,0.508
2016-06-07 02:06:00,2100E-3,5C000400,-0724,0829,12237,029.1,045.5,0.253,763.9,01.16,0.508
2016-06-07 02:07:00,1992E-3,5C000400,-0724,0829,12131,029.1,045.5,0.253,763.9,01.16,0.508
2016-06-07 02:08:00,2058E-3,5C000400,-0724,0829,12241,029.1,045.5,0.253,763.9,01.16,0.508
2016-06-07 02:09:00,2200E-3,5C000400,-0724,0829,12192,029.1,045.5,0.253,763.9,01.16,0.508
2016-06-07 02:10:00,2140E-3,5C000400,-0724,0829,12122,029.1,045.5,0.253,763.9,01.16,0.508
2016-06-07 02:11:00,2038E-3,5C000400,-0724,0829,12148,029.1,045.5,0.253,763.9,01.16,0.508
2016-06-07 02:12:00,2106E-3,5C000400,-0724,0829,12264,029.1,045.5,0.253,763.9,01.16,0.508
2016-06-07 02:13:00,2023E-3,5C000400,-0724,0829,12421,029.1,045.5,0.253,763.9,01.16,0.508
2016-06-07 02:14:00,2085E-3,5C000400,-0724,0828,12200,029.1,045.5,0.253,763.8,01.16,0.508
2016-06-07 02:15:00,2207E-3,5C000400,-0724,0829,12108,029.1,045.5,0.253,763.8,01.16,0.508
2016-06-07 02:16:00,2142E-3,5C000400,-0724,0829,12138,029.1,045.5,0.253,763.8,01.16,0.508
2016-06-07 02:17:00,2138E-3,5C000400,-0724,0828,12066,029.1,045.5,0.253,763.8,01.16,0.508
2016-06-07 02:18:00,2117E-3,5C000400,-0724,0829,12160,029.1,045.5,0.253,763.8,01.16,0.508
2016-06-07 02:19:00,2185E-3,5C000400,-0724,0829,12114,029.1,045.5,0.253,763.7,01.16,0.508
2016-06-07 02:20:00,2051E-3,5C000400,-0724,0829,12219,029.1,045.5,0.253,763.8,01.16,0.508
2016-06-07 02:21:00,2042E-3,5C000400,-0724,0830,12231,029.1,045.5,0.253,763.8,01.16,0.508
2016-06-07 02:22:00,2052E-3,5C000400,-0724,0829,12147,029.1,045.5,0.253,763.8,01.16,0.508
2016-06-07 02:23:00,1965E-3,5C000400,-0724,0829,12191,029.1,045.5,0.253,763.8,01.16,0.508
2016-06-07 02:24:00,2103E-3,5C000400,-0724,0830,12172,029.1,045.5,0.253,763.8,01.16,0.508
2016-06-07 02:25:00,2210E-3,5C000400,-0724,0830,12076,029.1,045.5,0.253,763.7,01.16,0.508
2016-06-07 02:26:00,1986E-3,5C000400,-0724,0830,12334,029.1,045.5,0.253,763.7,01.16,0.508
2016-06-07 02:27:00,2135E-3,5C000400,-0724,0830,12166,029.1,045.5,0.253,763.8,01.16,0.508
2016-06-07 02:28:00,2080E-3,5C000400,-0724,0830,12289,029.1,045.5,0.253,763.7,01.16,0.508
2016-06-07 02:29:00,1910E-3,5C000400,-0724,0829,12158,029.1,045.5,0.253,763.7,01.16,0.508
2016-06-07 02:30:00,2103E-3,5C000400,-0724,0829,11989,029.1,045.5,0.253,763.8,01.16,0.508
2016-06-07 02:31:00,2153E-3,5C000400,-0724,0828,12221,029.1,045.5,0.253,763.7,01.16,0.508
2016-06-07 02:32:00,2165E-3,5C000400,-0724,0829,12278,029.1,045.5,0.253,763.7,01.16,0.508
2016-06-07 02:33:00,2116E-3,5C000400,-0724,0828,12311,029.1,045.5,0.253,763.7,01.16,0.508
2016-06-07 02:34:00,2032E-3,5C000400,-0724,0828,12100,029.1,045.5,0.253,763.7,01.16,0.508
2016-06-07 02:35:00,1915E-3,5C000400,-0724,0828,12105,029.1,045.5,0.254,763.7,01.16,0.508
2016-06-07 02:36:00,2281E-3,5C000400,-0724,0828,12142,029.1,045.5,0.254,763.6,01.16,0.508
2016-06-07 02:37:00,2209E-3,5C000400,-0724,0828,12180,029.1,045.5,0.253,763.7,01.16,0.508
2016-06-07 02:38:00,2139E-3,5C000400,-0724,0828,12171,029.1,045.5,0.253,763.7,01.16,0.508
2016-06-07 02:39:00,2208E-3,5C000400,-0724,0828,12163,029.1,045.5,0.253,763.7,01.16,0.508
2016-06-07 02:40:00,2196E-3,5C000400,-0724,0828,12282,029.1,045.5,0.253,763.7,01.16,0.508
2016-06-07 02:41:00,2120E-3,5C000400,-0724,0829,12180,029.1,045.5,0.253,763.7,01.16,0.508
2016-06-07 02:42:00,2039E-3,5C000400,-0724,0829,12030,029.1,045.5,0.253,763.7,01.16,0.508
2016-06-07 02:43:00,2015E-3,5C000400,-0724,0828,12250,029.1,045.5,0.253,763.8,01.16,0.508
2016-06-07 02:44:00,2133E-3,5C000400,-0724,0828,12176,029.1,045.5,0.253,763.7,01.16,0.508
2016-06-07 02:45:00,2118E-3,5C000400,-0724,0828,12165,029.1,045.5,0.253,763.7,01.16,0.508
2016-06-07 02:46:00,2136E-3,5C000400,-0724,0830,12313,029.1,045.5,0.253,763.7,01.16,0.508
2016-06-07 02:47:00,2133E-3,5C000400,-0724,0829,12176,029.1,045.5,0.253,763.7,01.16,0.508
2016-06-07 02:48:00,2164E-3,5C000400,-0724,0829,12366,029.1,045.5,0.253,763.7,01.16,0.508
2016-06-07 02:49:00,2131E-3,5C000400,-0724,0829,12124,029.1,045.5,0.253,763.7,01.16,0.508
2016-06-07 02:50:00,2176E-3,5C000400,-0724,0829,12332,029.1,045.5,0.253,763.7,01.16,0.508
2016-06-07 02:51:00,2059E-3,5C000400,-0724,0829,12163,029.1,045.5,0.253,763.7,01.16,0.508
2016-06-07 02:52:00,1995E-3,5C000400,-0724,0829,12168,029.1,045.5,0.253,763.7,01.16,0.508
2016-06-07 02:53:00,2225E-3,5C000400,-0724,0829,12195,029.1,045.5,0.253,763.7,01.16,0.508
2016-06-07 02:54:00,2114E-3,5C000400,-0724,0830,12251,029.1,045.5,0.253,763.7,01.16,0.508
2016-06-07 02:55:00,2157E-3,5C000400,-0724,0829,12161,029.1,045.5,0.253,763.7,01.16,0.508
2016-06-07 02:56:00,2052E-3,5C000400,-0724,0830,12152,029.1,045.5,0.253,763.7,01.16,0.508
2016-06-07 02:57:00,2054E-3,5C000400,-0724,0828,12285,029.1,045.5,0.253,763.7,01.16,0.508
2016-06-07 02:58:00,2110E-3,5C000400,-0724,0830,12290,029.1,045.5,0.253,763.7,01.16,0.508
2016-06-07 02:59:00,1945E-3,5C000400,-0724,0829,12081,029.1,045.5,0.253,763.7,01.16,0.508
2016-06-07 03:00:00,2076E-3,5C000400,-0724,0829,12291,029.1,045.5,0.253,763.7,01.16,0.508
2016-06-07 03:01:00,2209E-3,5C000400,-0724,0828,12095,029.1,045.5,0.253,763.7,01.16,0.508
2016-06-07 03:02:00,1995E-3,5C000400,-0724,0830,12230,029.1,045.5,0.253,763.7,01.16,0.508
2016-06-07 03:03:00,2055E-3,5C000400,-0724,0829,12187,029.1,045.5,0.253,763.7,01.16,0.508
2016-06-07 03:04:00,2169E-3,5C000400,-0724,0829,12180,029.1,045.5,0.253,763.6,01.16,0.508
2016-06-07 03:05:00,2210E-3,5C000400,-0724,0829,12244,029.1,045.5,0.253,763.7,01.16,0.508
2016-06-07 03:06:00,2061E-3,5C000400,-0724,0830,12300,029.1,045.5,0.253,763.6,01.16,0.508
2016-06-07 03:07:00,2235E-3,5C000400,-0724,0829,12115,029.1,045.5,0.253,763.7,01.16,0.508
2016-06-07 03:08:00,2098E-3,5C000400,-0724,0829,12149,029.1,045.5,0.253,763.7,01.16,0.508
2016-06-07 03:09:00,2095E-3,5C000400,-0724,0828,12208,029.1,045.5,0.253,763.7,01.16,0.508
2016-06-07 03:10:00,2067E-3,5C000400,-0724,0829,12122,029.1,045.5,0.253,763.6,01.16,0.508
2016-06-07 03:11:00,2006E-3,5C000400,-0724,0829,12232,029.1,045.5,0.253,763.7,01.16,0.508
2016-06-07 03:12:00,2155E-3,5C000400,-0724,0828,12194,029.1,045.5,0.253,763.7,01.16,0.508
2016-06-07 03:13:00,2242E-3,5C000400,-0724,0829,12110,029.1,045.5,0.253,763.7,01.16,0.508
2016-06-07 03:14:00,2109E-3,5C000400,-0724,0829,12282,029.1,045.5,0.253,763.6,01.16,0.508
2016-06-07 03:15:00,2108E-3,5C000400,-0724,0829,12086,029.1,045.5,0.253,763.6,01.16,0.508
2016-06-07 03:16:00,2180E-3,5C000400,-0724,0829,12164,029.1,045.5,0.253,763.6,01.16,0.508
2016-06-07 03:17:00,2125E-3,5C000400,-0724,0830,12304,029.1,045.5,0.253,763.6,01.16,0.508
2016-06-07 03:18:00,2041E-3,5C000400,-0724,0829,12259,029.1,045.5,0.253,763.6,01.16,0.508
2016-06-07 03:19:00,2089E-3,5C000400,-0724,0830,12251,029.1,045.5,0.253,763.6,01.16,0.508
2016-06-07 03:20:00,2053E-3,5C000400,-0724,0829,12134,029.2,045.5,0.253,763.6,01.16,0.508
2016-06-07 03:21:00,2120E-3,5C000400,-0724,0829,12358,029.1,045.5,0.253,763.6,01.16,0.508
2016-06-07 03:22:00,1996E-3,5C000400,-0724,0829,12292,029.1,045.5,0.253,763.6,01.16,0.508
2016-06-07 03:23:00,1945E-3,5C000400,-0724,0829,12234,029.1,045.5,0.253,763.6,01.16,0.508
2016-06-07 03:24:00,2042E-3,5C000400,-0724,0829,12155,029.2,045.5,0.253,763.6,01.16,0.508
2016-06-07 03:25:00,2244E-3,5C000400,-0724,0830,12072,029.2,045.5,0.253,763.6,01.16,0.508
2016-06-07 03:26:00,2069E-3,5C000400,-0724,0829,12258,029.1,045.5,0.253,763.6,01.16,0.508
2016-06-07 03:27:00,2156E-3,5C000400,-0724,0830,11954,029.1,045.5,0.253,763.6,01.16,0.508
2016-06-07 03:28:00,1957E-3,5C000400,-0724,0829,12108,029.2,045.5,0.253,763.6,01.16,0.508
2016-06-07 03:29:00,2050E-3,5C000400,-0724,0829,12152,029.1,045.5,0.253,763.6,01.16,0.508
2016-06-07 03:30:00,2075E-3,5C000400,-0724,0829,12274,029.2,045.5,0.253,763.6,01.16,0.508
2016-06-07 03:31:00,2197E-3,5C000400,-0724,0830,12340,029.1,045.5,0.253,763.6,01.16,0.508
2016-06-07 03:32:00,2087E-3,5C000400,-0724,0829,12264,029.2,045.5,0.253,763.6,01.16,0.508
2016-06-07 03:33:00,2114E-3,5C000400,-0724,0829,12307,029.1,045.5,0.253,763.6,01.16,0.508
2016-06-07 03:34:00,2160E-3,5C000400,-0724,0829,12172,029.1,045.5,0.254,763.5,01.16,0.508
2016-06-07 03:35:00,2061E-3,5C000400,-0724,0830,12215,029.2,045.5,0.254,763.5,01.16,0.508
2016-06-07 03:36:00,2289E-3,5C000400,-0724,0828,12207,029.1,045.5,0.253,763.6,01.16,0.508
2016-06-07 03:37:00,2278E-3,5C000400,-0724,0830,12166,029.2,045.5,0.253,763.5,01.16,0.508
2016-06-07 03:38:00,2162E-3,5C000400,-0724,0830,12150,029.2,045.5,0.253,763.6,01.16,0.508
2016-06-07 03:39:00,2071E-3,5C000400,-0724,0829,12217,029.2,045.5,0.253,763.6,01.16,0.508
2016-06-07 03:40:00,2166E-3,5C000400,-0724,0829,12234,029.2,045.5,0.253,763.6,01.16,0.508
2016-06-07 03:41:00,2139E-3,5C000400,-0724,0829,12122,029.2,045.5,0.253,763.6,01.16,0.508
2016-06-07 03:42:00,2172E-3,5C000400,-0724,0829,12113,029.2,045.5,0.253,763.6,01.16,0.508
2016-06-07 03:43:00,2142E-3,5C000400,-0724,0829,12291,029.2,045.5,0.253,763.6,01.16,0.508
2016-06-07 03:44:00,2121E-3,5C000400,-0724,0829,12231,029.2,045.5,0.253,763.6,01.16,0.508
2016-06-07 03:45:00,2169E-3,5C000400,-0724,0830,12339,029.2,045.5,0.253,763.6,01.16,0.508
2016-06-07 03:46:00,2210E-3,5C000400,-0724,0830,12314,029.2,045.5,0.253,763.6,01.16,0.508
2016-06-07 03:47:00,2150E-3,5C000400,-0724,0829,12233,029.2,045.5,0.253,763.6,01.16,0.508
2016-06-07 03:48:00,2073E-3,5C000400,-0724,0830,12275,029.2,045.5,0.253,763.6,01.16,0.508
2016-06-07 03:49:00,2151E-3,5C000400,-0724,0830,12284,029.1,045.5,0.253,763.6,01.16,0.508
2016-06-07 03:50:00,2162E-3,5C000400,-0724,0829,12251,029.2,045.5,0.253,763.6,01.16,0.508
2016-06-07 03:51:00,2173E-3,5C000400,-0724,0831,12244,029.2,045.5,0.253,763.6,01.16,0.508
2016-06-07 03:52:00,2129E-3,5C000400,-0724,0830,12198,029.2,045.5,0.253,763.6,01.16,0.508
2016-06-07 03:53:00,2008E-3,5C000400,-0724,0831,12219,029.2,045.5,0.253,763.6,01.16,0.508
2016-06-07 03:54:00,1991E-3,5C000400,-0724,0830,12150,029.1,045.5,0.253,763.6,01.16,0.508
2016-06-07 03:55:00,2124E-3,5C000400,-0724,0830,12324,029.2,045.5,0.253,763.6,01.16,0.508
2016-06-07 03:56:00,2217E-3,5C000400,-0724,0829,12188,029.2,045.5,0.253,763.6,01.16,0.508
2016-06-07 03:57:00,2043E-3,5C000400,-0724,0829,12172,029.2,045.5,0.253,763.6,01.16,0.508
2016-06-07 03:58:00,2135E-3,5C000400,-0724,0830,12046,029.2,045.5,0.253,763.6,01.16,0.508
2016-06-07 03:59:00,2242E-3,5C000400,-0724,0829,12182,029.2,045.5,0.253,763.6,01.16,0.508
2016-06-07 04:00:00,2127E-3,5C000400,-0724,0829,12124,029.2,045.5,0.253,763.6,01.16,0.508
2016-06-07 04:01:00,2023E-3,5C000400,-0724,0829,12181,029.2,045.5,0.253,763.6,01.16,0.508
2016-06-07 04:02:00,2045E-3,5C000400,-0724,0829,12249,029.2,045.5,0.253,763.6,01.16,0.508
2016-06-07 04:03:00,2096E-3,5C000400,-0724,0830,12264,029.2,045.5,0.253,763.6,01.16,0.508
2016-06-07 04:04:00,2226E-3,5C000400,-0724,0830,12142,029.2,045.5,0.253,763.6,01.16,0.508
2016-06-07 04:05:00,2082E-3,5C000400,-0724,0830,12226,029.2,045.5,0.253,763.5,01.16,0.508
2016-06-07 04:06:00,2173E-3,5C000400,-0724,0830,12221,029.2,045.5,0.253,763.5,01.16,0.508
2016-06-07 04:07:00,2253E-3,5C000400,-0724,0829,12067,029.2,045.5,0.253,763.6,01.16,0.508
2016-06-07 04:08:00,2203E-3,5C000400,-0724,0830,12072,029.2,045.5,0.253,763.6,01.16,0.508
2016-06-07 04:09:00,2280E-3,5C000400,-0724,0829,12233,029.2,045.5,0.253,763.5,01.16,0.508
2016-06-07 04:10:00,2140E-3,5C000400,-0724,0829,12141,029.2,045.5,0.253,763.5,01.16,0.508
2016-06-07 04:11:00,2174E-3,5C000400,-0724,0830,12129,029.2,045.5,0.253,763.5,01.16,0.508
2016-06-07 04:12:00,2286E-3,5C000400,-0724,0830,12222,029.2,045.5,0.253,763.5,01.16,0.508
2016-06-07 04:13:00,1997E-3,5C000400,-0724,0829,12176,029.2,045.5,0.253,763.6,01.16,0.508
2016-06-07 04:14:00,2074E-3,5C000400,-0724,0829,12226,029.2,045.5,0.253,763.5,01.16,0.508
2016-06-07 04:15:00,2226E-3,5C000400,-0724,0829,12268,029.2,045.5,0.253,763.6,01.16,0.508
2016-06-07 04:16:00,2224E-3,5C000400,-0724,0830,12291,029.2,045.5,0.253,763.5,01.16,0.508
2016-06-07 04:17:00,2212E-3,5C000400,-0724,0829,12162,029.2,045.5,0.253,763.5,01.16,0.508
2016-06-07 04:18:00,2176E-3,5C000400,-0724,0829,12183,029.2,045.5,0.253,763.5,01.16,0.508
2016-06-07 04:19:00,2104E-3,5C000400,-0724,0829,12268,029.2,045.5,0.253,763.5,01.16,0.508
2016-06-07 04:20:00,1969E-3,5C000400,-0724,0830,12256,029.2,045.5,0.253,763.5,01.16,0.508